Location: Unspecified
(0.0000°N, 0.0000°E)
Time: 06:00:04
(UTC+00:00)

Vanguard 2 - Pass Details

Date: 20 May 2026
Orbit: 553 x 2894 km, 32.9° (Epoch: 9 June)

Event Time Altitude Azimuth Distance (km) Brightness Sun altitude
Rises 00:53:44 0° 287° (WNW) 5,835 - -65.6°
Reaches altitude 10° 00:59:03 10° 303° (WNW) 5,175 - -64.9°
Exits shadow 01:05:21 19° 327° (NNW) 4,772 11.5 -63.9°
Maximum altitude 01:09:35 20° 345° (NNW) 4,766 11.5 -63.2°
Drops below altitude 10° 01:21:09 10° 26° (NNE) 5,675 12.2 -61.2°
Sets 01:27:33 0° 42° (NE) 6,543 12.7 -60.1°
